This is the latest recevied weather packets stored in our database for station/object OH6HPS. If no packets are shown the sender has not sent any weather packets the latest 10 day(s).
| Time | Temp. | Humidity | Pressure | Rain* | Wind** | Luminosity | Snow |
|---|---|---|---|---|---|---|---|
| 1788171847 | 19.44° C | 91% | 1003.1 hPa | 0.51 mm | - | 229 W/m² | - |
| 1788171248 | 19.44° C | 92% | 1003 hPa | 0.51 mm | - | 223 W/m² | - |
| 1788170646 | 19.44° C | 93% | 1002.9 hPa | 0.51 mm | - | 246 W/m² | - |
| 1788170046 | 18.89° C | 93% | 1002.8 hPa | 1.52 mm | - | 208 W/m² | - |
| 1788169446 | 18.89° C | 92% | 1002.8 hPa | 1.52 mm | - | 162 W/m² | - |
| 1788168846 | 19.44° C | 92% | 1002.7 hPa | 1.02 mm | - | 246 W/m² | - |
| 1788168245 | 19.44° C | 92% | 1002.6 hPa | 0.76 mm | - | 100 W/m² | - |
| 1788167646 | 18.89° C | 94% | 1002.7 hPa | 0.76 mm | - | 209 W/m² | - |
| 1788167046 | 18.89° C | 93% | 1002.6 hPa | 1.02 mm | - | 213 W/m² | - |
| 1788166446 | 18.89° C | 91% | 1002.6 hPa | 0.25 mm | - | 157 W/m² | - |
| 1788165845 | 19.44° C | 93% | 1002.6 hPa | 0.25 mm | - | 111 W/m² | - |
| 1788165244 | 18.89° C | 95% | 1002.6 hPa | 0.51 mm | - | 315 W/m² | - |
| 1788164645 | 18.33° C | 95% | 1002.6 hPa | 0.51 mm | - | 297 W/m² | - |
| 1788164044 | 18.33° C | 96% | 1002.5 hPa | 0.51 mm | - | 114 W/m² | - |
| 1788163443 | 18.33° C | 95% | 1002.5 hPa | 0.25 mm | - | 176 W/m² | - |
| 1788162844 | 18.33° C | 96% | 1002.4 hPa | 0.51 mm | - | 95 W/m² | - |
| 1788162243 | 17.78° C | 96% | 1002.4 hPa | 0.51 mm | - | 72 W/m² | - |
| 1788161643 | 17.78° C | 96% | 1002.5 hPa | 0.25 mm | - | 60 W/m² | - |
| 1788161044 | 17.78° C | 96% | 1002.5 hPa | 0.25 mm | - | 74 W/m² | - |
| 1788160443 | 17.78° C | 96% | 1002.5 hPa | 0.51 mm | - | 85 W/m² | - |
| 1788159844 | 17.78° C | 96% | 1002.5 hPa | 0.51 mm | - | 51 W/m² | - |
| 1788159242 | 17.78° C | 95% | 1002.4 hPa | 0.25 mm | - | 41 W/m² | - |
| 1788158642 | 17.78° C | 96% | 1002.5 hPa | 0.25 mm | - | 37 W/m² | - |
| 1788158043 | 17.22° C | 96% | 1002.5 hPa | 0.25 mm | - | 37 W/m² | - |
| 1788157442 | 17.22° C | 96% | 1002.5 hPa | 0.51 mm | - | 41 W/m² | - |
* Rain latest hour (hover to see other rain measurements)
** Current wind speed in m/s (hover to see current wind gust speed)